Location: Aldenham
(51.6667°N, 0.3500°W)
Time: 06:28:01
(UTC+00:00)

Cosmos 1072 Rocket - Pass Details

Date: 18 November 2025
Orbit: 947 x 1008 km, 82.9° (Epoch: 10 December)

Event Time Altitude Azimuth Distance (km) Brightness Sun altitude
Rises 18:15:39 0° 188° (S) 3,634 7.7 -19.5°
Reaches altitude 10° 18:18:09 10° 188° (S) 2,684 7.0 -19.9°
Maximum altitude 18:24:18 89° 277° (W) 959 4.4 -20.9°
Drops below altitude 10° 18:30:26 10° 10° (N) 2,683 6.7 -21.8°
Sets 18:32:56 0° 11° (N) 3,632 7.4 -22.2°
